FENGYUN 1C DEB

Satellite information

Favourite Embed

Satellite Type and Status

DEBRISIN ORBIT

Key statistics

Satellite FENGYUN 1C DEB at a glance.

Uptime

9496

Days in orbit

Revolutions

≈ 14.2

Per day

Orbit

SSO

Sun Synchronous Orbit

Inclination

98.6

Latest

Satellite identification and parameters

Extended collection of information and parameters for FENGYUN 1C DEB.

Object identification

Identified? True

Debris? True

Object name: FENGYUN 1C DEB

International designator: 1999-025BAA

Object number (NORAD): 30936

Object ID (CCSDS): 30936

Country: PEOPLES REPUBLIC OF CHINA (PRC)

Current information (Y/N): Y

RCS size: SMALL

Orbital parameters

Period: 101.206 minutes

Inclination: 98.6 deg

SMA: 7193.896 km

Apoapsis: 849.577 km

Periapsis: 781.945 km

RAAN: 164.6098 deg

Eccentricy: 0.0047007

Argument of periapsis: 202.4721 deg

Mean anomaly: 287.7311 deg

Mean motion: 14.22841527 rev/day

Mean motion (dot): 0.00001207 rev/day2

B* drag term: 0.00055056 1/REarth

Two-line elements (TLE)

Creation date: May 8, 2025, 10:56 p.m.

Reference frame: TEME

Reference center: EARTH

Epoch: May 8, 2025, 2:28 p.m. UTC

TLE line 0: 0 FENGYUN 1C DEB

TLE line 1: 1 30936U 99025BAA 25128.60328236 .00001207 00000-0 55056-3 0 9998

TLE line 2: 2 30936 98.6000 164.6098 0047007 202.4721 287.7311 14.22841527940587

Live tracking on map

Real-time ground track for satellite FENGYUN 1C DEB.

In-orbit conjunctions

A list of the most updated potential collisions computed for object FENGYUN 1C DEB.

Target Orbit TCA Probability of collision Miss distance Type
COSMOS 1275 DEB LEO 2025-03-15 08:03:02 0.0001514187 72.0 (m) DEBRIS
DODECAPOLE 2 SSO 2024-12-28 09:57:55 0.0005952382 780.0 (m) PAYLOAD
SL-16 DEB LEO 2024-05-30 11:05:26 0.0001412759 95.0 (m) DEBRIS

Associated space launch

Chinese polar orbiting meteorological satellite

FENGYUN 1C DEB was lifted into orbit during the mission ‘Long March 4B | Feng Yun 1C’, on board a Long March 4B space rocket.

The launch took place on May 10, 1999, 1:33 a.m. from Launch Complex 7.

For more information about the launch, click the button.

Launch to space Long March 4B | Feng Yun 1C
Long March 4B | Feng Yun 1C

Agency: N/A

Status: Launch Successful

Launch date: May 10, 1999, 1:33 a.m. UTC

Rocket: Long March 4B

Launch pad: Launch Complex 7

Location: Taiyuan Satellite Launch Center, People's Republic of China

...

Latest news about this satellite

There are no fresh news available about this satellite. Check back as we update our databases every day.


Newsletter sign-up

Weekly statistics, charts and insights to help you stay on top of the space industry.